[[{"header":{"parameterUnit":"m.s-1","parameterCategory":1,"la1":30.2992,"la2":30.254,"lo1":-89.0895,"lo2":-89.0443,"dy":0.0025,"dx":0.0025,"nx":19,"ny":19,"refTime":"2026-04-13T09:00:00:Z","depth":0,"parameterNumber":2,"parameterNumberName":"U-component_of_WINDS"},"data":[0,0,0,-3.0212,-3.0215,-3.0376,-3.0376,-3.0587,-3.0589,0,0,0,0,0,0,0,0,0,0,0,-3.0168,-3.0169,-3.0212,-3.0216,-3.0376,-3.0376,-3.0587,-3.0589,0,0,0,0,0,0,0,0,0,0,0,-3.0167,-3.0169,-3.0171,-3.0216,-3.0375,-3.0376,-3.0587,-3.0464,0,0,0,0,0,0,0,0,0,0,-3.0307,-3.0269,-3.0168,-3.0171,-3.0217,-3.0375,-3.0376,-3.0458,-3.0471,-3.0517,0,-3.0558,0,-3.0577,-3.0604,-3.0604,0,0,0,-3.0214,-3.0258,-3.0298,-3.0171,-3.0219,-3.0375,-3.0303,-3.0465,-3.0481,-3.0535,-3.0561,-3.0569,-3.0581,-3.0605,-3.0606,-3.0875,-3.0876,0,0,-3.0205,-3.0198,-3.0287,-3.0308,-3.0283,-3.0298,-3.0308,-3.0475,-3.0502,-3.0562,-3.0574,-3.0584,-3.0607,-3.0608,-3.0874,-3.0876,0,0,0,-3.0181,-3.0192,-3.0228,-3.03,-3.0328,-3.0302,-3.0314,-3.0495,-3.0507,-3.0576,-3.0586,-3.0608,-3.061,-3.0873,-3.0875,-3.0934,0,0,0,-3.0176,-3.0178,-3.0224,-3.0222,-3.0325,-3.0413,-3.0331,-3.0496,-3.0515,-3.0585,-3.0608,-3.0613,-3.0871,-3.0874,-3.0929,-3.0963,0,0,0,-3.0156,-3.0176,-3.02,-3.0221,-3.029,-3.0411,-3.0432,-3.05,-3.0521,-3.0605,-3.0613,-3.087,-3.0873,-3.0925,-3.0956,-3.1031,0,0,0,-3.0134,-3.0251,-3.0201,-3.0336,-3.0288,-3.0446,-3.0431,-3.055,-3.0628,-3.0609,-3.0871,-3.0874,-3.0923,-3.0951,-3.1026,-3.1093,-3.112,0,0,-3.0278,-3.0268,-3.0348,-3.0308,-3.0472,-3.0422,-3.0596,-3.0675,-3.069,-3.0813,-3.0819,-3.093,-3.0955,-3.103,-3.1275,-3.1297,0,0,0,-3.0391,-3.0449,-3.0494,-3.0568,-3.063,-3.0687,-3.0739,-3.0769,-3.0873,-3.0751,-3.0979,-3.0994,-3.1038,-3.107,-3.1088,-3.1127,-3.0889,-3.0889,-3.0888,-3.0585,-3.0597,-3.073,-3.0761,-3.0834,-3.0887,-3.0946,-3.0995,-3.0987,-3.104,-3.1077,-3.1224,-3.1261,-3.1275,-3.1315,-3.1113,-3.1114,-3.1114,-3.1114,-3.0797,-3.088,-3.0866,-3.0989,-3.1001,-3.1106,-3.1162,-3.1153,-3.1253,-3.1197,-3.1237,-3.1175,-3.1298,-3.1333,-3.1118,-3.1118,-3.1117,-3.1117,-3.1116,-3.0925,-3.0967,-3.1,-3.1108,-3.119,-3.1218,-3.1314,-3.1322,-3.1331,-3.137,-3.1409,-3.1408,-3.1408,-3.1388,-3.1388,-3.1389,-3.1389,-3.139,-3.139,-3.1045,-3.108,-3.1159,-3.1235,-3.1283,-3.1348,-3.1403,-3.1452,-3.1507,-3.1506,-3.1506,-3.1492,-3.1308,-3.1261,-3.1398,-3.1397,-3.1396,-3.1395,-3.1394,-3.1254,-3.1208,-3.133,-3.1379,-3.1469,-3.155,-3.1559,-3.1656,-3.1698,-3.1745,-3.1723,-3.1585,-3.1576,-3.1562,-3.1523,-3.172,-3.172,-3.172,-3.172,-3.1362,-3.1358,-3.1484,-3.1561,-3.1638,-3.1658,-3.1797,-3.1841,-3.188,-3.1906,-3.1879,-3.1829,-3.1813,-3.1813,-3.1793,-3.1757,-3.201,-3.201,-3.201,-3.1491,-3.1495,-3.1611,-3.1646,-3.1717,-3.1778,-3.1909,-3.1999,-3.2034,-3.2022,-3.1927,-3.1915,-3.1833,-3.1806,-3.1792,-3.1761,-3.1695,0,0]},{"header":{"parameterUnit":"m.s-1","parameterCategory":1,"la1":30.2992,"la2":30.254,"lo1":-89.0895,"lo2":-89.0443,"dy":0.0025,"dx":0.0025,"nx":19,"ny":19,"refTime":"2026-04-13T09:00:00:Z","depth":0,"parameterNumber":3,"parameterNumberName":"V-component_of_WINDS"},"data":[0,0,0,3.3936,3.3937,3.3972,3.3972,3.4022,3.4022,0,0,0,0,0,0,0,0,0,0,0,3.3931,3.3932,3.3936,3.3937,3.3972,3.3972,3.4022,3.4022,0,0,0,0,0,0,0,0,0,0,0,3.3931,3.3931,3.3932,3.3937,3.3972,3.3972,3.4021,3.3993,0,0,0,0,0,0,0,0,0,0,3.3958,3.3959,3.3931,3.3932,3.3938,3.3972,3.3972,3.3992,3.3995,3.4009,0,3.4024,0,3.4024,3.4026,3.4026,0,0,0,3.3933,3.3956,3.3961,3.3932,3.3938,3.3972,3.3955,3.3993,3.3997,3.4013,3.4025,3.4026,3.4025,3.4026,3.4027,3.4122,3.4123,0,0,3.3931,3.394,3.3959,3.3964,3.396,3.3954,3.3956,3.3995,3.4008,3.4025,3.4027,3.4026,3.4027,3.4027,3.4122,3.4123,0,0,0,3.3929,3.3939,3.3942,3.3962,3.3968,3.3955,3.3958,3.4006,3.4007,3.4028,3.4026,3.4027,3.4028,3.4121,3.4122,3.416,0,0,0,3.3927,3.3937,3.3942,3.3947,3.3967,3.3988,3.3968,3.4004,3.4008,3.4026,3.4027,3.4028,3.412,3.4122,3.4157,3.4175,0,0,0,3.3927,3.3937,3.3944,3.3947,3.3963,3.3987,3.399,3.4005,3.4007,3.4026,3.4028,3.412,3.4121,3.4155,3.4172,3.4201,0,0,0,3.3929,3.3977,3.3944,3.3998,3.3962,3.4011,3.3989,3.4025,3.4046,3.4027,3.4121,3.4122,3.4154,3.4169,3.4199,3.4226,3.4238,0,0,3.3994,3.3986,3.4016,3.3988,3.4044,3.4005,3.4066,3.4078,3.4072,3.4106,3.4108,3.4158,3.4171,3.4201,3.4311,3.4321,0,0,0,3.404,3.4061,3.4075,3.4095,3.4105,3.4114,3.4116,3.412,3.4148,3.4091,3.4178,3.4185,3.4202,3.4214,3.4223,3.4236,3.4129,3.4129,3.4129,3.4142,3.4133,3.4182,3.4176,3.4196,3.4196,3.4211,3.4216,3.4201,3.4222,3.423,3.4299,3.4314,3.432,3.4333,3.4246,3.4246,3.4247,3.4247,3.4235,3.4263,3.4242,3.4281,3.427,3.4303,3.4305,3.4293,3.4321,3.4292,3.4306,3.4272,3.4332,3.4342,3.4249,3.4249,3.4249,3.4248,3.4248,3.4299,3.431,3.4315,3.4342,3.4364,3.4357,3.4384,3.4374,3.4365,3.4379,3.4386,3.4385,3.4381,3.4383,3.4384,3.4384,3.4384,3.4384,3.4384,3.4362,3.4366,3.4391,3.4406,3.4416,3.4429,3.443,3.444,3.4448,3.4438,3.4438,3.4419,3.434,3.4319,3.4388,3.4387,3.4387,3.4386,3.4386,3.4455,3.4433,3.4471,3.4482,3.4496,3.4518,3.4505,3.4526,3.4533,3.4546,3.4525,3.4469,3.4459,3.4452,3.4434,3.4528,3.4528,3.4528,3.4528,3.4507,3.4502,3.4537,3.4555,3.4571,3.4563,3.4604,3.4605,3.4602,3.4605,3.4591,3.4567,3.4561,3.4554,3.4545,3.4528,3.4644,3.4644,3.4644,3.4563,3.4558,3.4595,3.4593,3.4604,3.4612,3.465,3.467,3.4662,3.4649,3.4607,3.4602,3.4564,3.4553,3.4535,3.4521,3.449,0,0]}]]